Location: Haliburton Scout Reserve
(45.0900°N, 78.3200°W)
Time: 01:29:10
(UTC-05:00)

Transit 4A - Visible Passes

Search period start: 06 February 2023 00:00
Search period end: 16 February 2023 00:00
Orbit: 870 x 973 km, 66.8° (Epoch: 05 February)

Date Brightness Start Highest point End Pass type
(mag) Time Alt. Az. Time Alt. Az. Time Alt. Az.
06 Feb 9.0 18:20:47 10° WSW 18:26:11 39° NW 18:31:39 10° NNE visible
06 Feb 10.3 20:12:04 10° NW 20:14:19 12° NNW 20:16:34 10° N visible
07 Feb 9.5 18:30:38 10° WSW 18:35:38 29° NW 18:40:42 10° NNE visible
07 Feb 10.4 20:23:41 10° NNW 20:24:07 10° NNW 20:24:35 10° NNW visible
08 Feb 9.8 18:40:42 10° W 18:45:11 22° NW 18:49:41 10° NNE visible
09 Feb 10.0 18:51:00 10° WNW 18:54:48 17° NNW 18:58:37 10° N visible
10 Feb 10.1 19:01:33 10° WNW 19:04:30 14° NNW 19:07:28 10° N visible
11 Feb 10.2 19:12:26 10° NW 19:14:16 11° NNW 19:16:07 10° N visible
15 Feb 10.5 21:39:19 10° N 21:39:30 11° N 21:39:30 11° N visible
